SCOUT A R/B, 2180

Orbit data source: Space-Track

SCOUT A R/B, 2180 is space debris in LEO originally from a launch on Thu, 19 May 1966 UTC launched from the Air Force Western Test Range (AFWTR). Debris objects in space refer to the collection of defunct objects orbiting the Earth. Examples of debris include non-operational satellites, rocket bodies, and fragments generated from explosions, collisions, or faulty payload assembly.

Loading next visibility...
Identifier
2180, 1966-041B
Orbit
LEO
Country
Flag of USUS
Related business
Manufacturer
ABL
Mission
Spacecraft
Bus & Motor
ALTAIR, Unknown motor
Mass
33 kg wet, 33 kg dry
Launch date (UTC)
1966-05-19 (59 years ago)
Launch vehicle
Unknown
Launch site
Air Force Western Test Range (AFWTR)
Object type
Payload
Rocket body
Debris
Shape & HBR
Cyl, 0.8 m
Radar Cross Section
0.687 m², Medium (>0.1 m² and < 1m²)

Expand to show TLE details & history
Last TLE update: 8 hours ago

TLE from 8 hours ago
0 SCOUT A R/B
1 02180U 66041B   25261.24791469  .00000101  00000-0  58234-4 0  9994
2 02180  90.2180  75.8689 0080374  98.8873 262.1417 14.00981790 25190
Epoch: 2025-09-18T05:56Z
TLE epoch observation values (Epoch: 2025-09-18T05:56:59.829Z)
Latitude
0.00001°
Longitude
-10.79263°
Altitude
901.874 km
Speed
7.397 km/s
True Right ascension
05h 03m 28s
True Declination
0° 00' 00"
Sunlit
Object was in daylight at epoch
Visualization orbit readout
Latitude
Unknown
Longitude
Unknown
Altitude
Unknown
Speed
Unknown
Apparent Right ascension
Unknown
Apparent Declination
Unknown
Sunlit
N/A
Visualization observer readout
Local Sidereal Time
06:33:39
Azimuth
Unknown
Elevation
Unknown
Doppler factor
Unknown
Orbital elements
Apogee altitude
945.769 km
Perigee altitude
828.977 km
Semi-major axis
7,265.51 km
Eccentricity
0.00804
Inclination
90.218°
RAAN
75.8689°
Arg. of periapsis
98.8873°
True anomaly
261.23062°
Mean anomaly
262.1417°
Eccentric anomaly
261.68603°
Mean motion
3.50464 °/min
Orbital period
102.72 mins
BSTAR
0.000058234
Loading maneuver chart data...
Computing Atmospheric mass density...
Loading historical data...
Loading historical data...
Loading historical data...
Loading historical data...
Loading historical data...
Loading historical data...
Loading historical data...

Documentation

Showing up to 5 results
|